TimeMST,TemperatureF,Dew PointF,Humidity,Sea Level PressureIn,VisibilityMPH,Wind Direction,Wind SpeedMPH,Gust SpeedMPH,PrecipitationIn,Events,Conditions,WindDirDegrees,DateUTC
12:56 AM,42.1,19.9,41,30.02,10.0,Calm,Calm,-,N/A,,Clear,0,2012-11-03 07:56:00
1:56 AM,37.9,18.0,45,30.04,10.0,Calm,Calm,-,N/A,,Clear,0,2012-11-03 08:56:00
2:56 AM,37.0,17.1,44,30.05,10.0,ESE,5.8,-,N/A,,Clear,120,2012-11-03 09:56:00
3:56 AM,35.1,17.1,48,30.06,10.0,ESE,5.8,-,N/A,,Clear,120,2012-11-03 10:56:00
4:56 AM,32.0,14.0,48,30.09,10.0,Calm,Calm,-,N/A,,Clear,0,2012-11-03 11:56:00
5:56 AM,30.9,16.0,54,30.14,10.0,Calm,Calm,-,N/A,,Clear,0,2012-11-03 12:56:00
6:56 AM,30.9,17.1,57,30.15,10.0,Calm,Calm,-,N/A,,Clear,0,2012-11-03 13:56:00
7:56 AM,39.9,19.9,45,30.17,10.0,Calm,Calm,-,N/A,,Clear,0,2012-11-03 14:56:00
8:56 AM,46.0,21.9,39,30.18,10.0,ESE,4.6,-,N/A,,Clear,110,2012-11-03 15:56:00
9:56 AM,51.1,23.0,33,30.16,10.0,Calm,Calm,-,N/A,,Clear,0,2012-11-03 16:56:00
10:56 AM,59.0,23.0,25,30.16,10.0,Calm,Calm,-,N/A,,Clear,0,2012-11-03 17:56:00
11:56 AM,63.0,23.0,22,30.12,10.0,Calm,Calm,-,N/A,,Clear,0,2012-11-03 18:56:00
12:56 PM,66.0,23.0,20,30.09,10.0,Calm,Calm,-,N/A,,Clear,0,2012-11-03 19:56:00
1:56 PM,70.0,24.1,18,30.07,10.0,Variable,3.5,-,N/A,,Clear,0,2012-11-03 20:56:00
2:56 PM,71.1,24.1,17,30.06,10.0,NNE,8.1,-,N/A,,Clear,20,2012-11-03 21:56:00
3:56 PM,70.0,24.1,18,30.07,10.0,ENE,4.6,-,N/A,,Clear,70,2012-11-03 22:56:00
4:56 PM,69.1,23.0,18,30.08,10.0,Calm,Calm,-,N/A,,Clear,0,2012-11-03 23:56:00
5:56 PM,64.0,23.0,21,30.11,10.0,Calm,Calm,-,N/A,,Clear,0,2012-11-04 00:56:00
6:56 PM,52.0,18.0,26,30.16,10.0,Calm,Calm,-,N/A,,Clear,0,2012-11-04 01:56:00
7:56 PM,46.9,15.1,28,30.15,10.0,WSW,3.5,-,N/A,,Clear,240,2012-11-04 02:56:00
8:56 PM,46.0,17.1,31,30.16,10.0,Calm,Calm,-,N/A,,Clear,0,2012-11-04 03:56:00
9:56 PM,46.9,19.0,33,30.17,10.0,SW,4.6,-,N/A,,Clear,230,2012-11-04 04:56:00
10:56 PM,44.1,19.0,37,30.17,10.0,Calm,Calm,-,N/A,,Clear,0,2012-11-04 05:56:00
11:56 PM,39.9,18.0,41,30.17,10.0,SSW,4.6,-,N/A,,Clear,210,2012-11-04 06:56:00